Satellite: NOAA-11
Catalog number: 19531
Epoch time:      08233.66175277
Element set:    0289
Inclination:      098.7970 deg
RA of node:       322.0858 deg
Eccentricity:    0.0010830
Arg of perigee:   243.1024 deg
Mean anomaly:     116.9049 deg
Mean motion:   14.14875464 rev/day
Decay rate:       1.74e-06 rev/day^2
Epoch rev:           02702
Checksum:              300

Satellite: NOAA-12
Catalog number: 21263
Epoch time:      08233.98594851
Element set:    0827
Inclination:      098.7701 deg
RA of node:       235.9384 deg
Eccentricity:    0.0011716
Arg of perigee:   301.3447 deg
Mean anomaly:     058.6593 deg
Mean motion:   14.25542955 rev/day
Decay rate:        2.2e-07 rev/day^2
Epoch rev:           89762
Checksum:              328

Satellite: MET-3/5
Catalog number: 21655
Epoch time:      08234.90659237
Element set:     476
Inclination:      082.5524 deg
RA of node:       057.9444 deg
Eccentricity:    0.0012755
Arg of perigee:   204.4657 deg
Mean anomaly:     155.5861 deg
Mean motion:   13.17017500 rev/day
Decay rate:        5.1e-07 rev/day^2
Epoch rev:           81823
Checksum:              304

Satellite: MET-2/21
Catalog number: 22782
Epoch time:      08233.93074964
Element set:    0230
Inclination:      082.5432 deg
RA of node:       060.2083 deg
Eccentricity:    0.0023984
Arg of perigee:   107.3514 deg
Mean anomaly:     253.0296 deg
Mean motion:   13.83630541 rev/day
Decay rate:        7.3e-07 rev/day^2
Epoch rev:           75608
Checksum:              287

Satellite: OKEAN-4
Catalog number: 23317
Epoch time:      08234.85922110
Element set:     673
Inclination:      082.5362 deg
RA of node:       253.7884 deg
Eccentricity:    0.0020347
Arg of perigee:   271.3060 deg
Mean anomaly:     088.5824 deg
Mean motion:   14.82629983 rev/day
Decay rate:       1.42e-06 rev/day^2
Epoch rev:           74801
Checksum:              303

Satellite: NOAA-14
Catalog number: 23455
Epoch time:      08233.73942774
Element set:    0275
Inclination:      098.9427 deg
RA of node:       306.0074 deg
Eccentricity:    0.0008755
Arg of perigee:   326.0475 deg
Mean anomaly:     034.0121 deg
Mean motion:   14.13747715 rev/day
Decay rate:        9.4e-07 rev/day^2
Epoch rev:           70347
Checksum:              304

Satellite: SICH-1
Catalog number: 23657
Epoch time:      08233.71274941
Element set:    0472
Inclination:      082.5263 deg
RA of node:       035.8444 deg
Eccentricity:    0.0022171
Arg of perigee:   268.1889 deg
Mean anomaly:     091.6760 deg
Mean motion:   14.81598406 rev/day
Decay rate:       1.84e-06 rev/day^2
Epoch rev:           69977
Checksum:              333

Satellite: NOAA-15
Catalog number: 25338
Epoch time:      08233.68758389
Element set:    0591
Inclination:      098.5589 deg
RA of node:       223.9200 deg
Eccentricity:    0.0010027
Arg of perigee:   209.0839 deg
Mean anomaly:     150.9753 deg
Mean motion:   14.24720331 rev/day
Decay rate:      -1.54e-06 rev/day^2
Epoch rev:           53398
Checksum:              321

Satellite: RESURS
Catalog number: 25394
Epoch time:      08234.65842336
Element set:       3
Inclination:      098.3830 deg
RA of node:       275.6191 deg
Eccentricity:    0.0002239
Arg of perigee:   029.6034 deg
Mean anomaly:     330.5270 deg
Mean motion:   14.24168079 rev/day
Decay rate:        2.5e-07 rev/day^2
Epoch rev:           52576
Checksum:              286

Satellite: FENGYUN1
Catalog number: 25730
Epoch time:      08233.94992950
Element set:    0601
Inclination:      098.7251 deg
RA of node:       207.5485 deg
Eccentricity:    0.0021418
Arg of perigee:   349.1614 deg
Mean anomaly:     010.9092 deg
Mean motion:   14.07753651 rev/day
Decay rate:       1.51e-06 rev/day^2
Epoch rev:           47807
Checksum:              297

Satellite: OKEAN-0
Catalog number: 25860
Epoch time:      08234.78118634
Element set:     451
Inclination:      097.7547 deg
RA of node:       222.4418 deg
Eccentricity:    0.0001895
Arg of perigee:   066.2426 deg
Mean anomaly:     293.8976 deg
Mean motion:   14.73532846 rev/day
Decay rate:        1.8e-07 rev/day^2
Epoch rev:           48905
Checksum:              330

Satellite: NOAA-16
Catalog number: 26536
Epoch time:      08233.66801489
Element set:    0065
Inclination:      099.1615 deg
RA of node:       224.2721 deg
Eccentricity:    0.0011286
Arg of perigee:   047.9798 deg
Mean anomaly:     312.2311 deg
Mean motion:   14.12495297 rev/day
Decay rate:       2.50e-06 rev/day^2
Epoch rev:           40787
Checksum:              311

Satellite: NOAA-17
Catalog number: 27453
Epoch time:      08233.83685994
Element set:    0059
Inclination:      098.5291 deg
RA of node:       296.5761 deg
Eccentricity:    0.0010690
Arg of perigee:   280.0174 deg
Mean anomaly:     079.9778 deg
Mean motion:   14.23996494 rev/day
Decay rate:       1.27e-06 rev/day^2
Epoch rev:           32000
Checksum:              342

Satellite: NOAA-18
Catalog number: 28654
Epoch time:      08233.78655421
Element set:    0548
Inclination:      098.8690 deg
RA of node:       173.9297 deg
Eccentricity:    0.0015009
Arg of perigee:   128.1571 deg
Mean anomaly:     232.0963 deg
Mean motion:   14.11185075 rev/day
Decay rate:      -1.37e-06 rev/day^2
Epoch rev:           16758
Checksum:              330

/EX
SB KEPS @ AMSAT  $ORB08234.M
Orbital Elements  08234.MISC

HR AMSAT ORBITAL ELEMENTS FOR MANNED AND MISCELLANEOUS SATELLITES
FROM WA5QGD FORT WORTH,TX August 21, 2008
Send Subscribe/unsubscribe to KEPS at 
http://www.amsat.org/mailman/listinfo/keps
BID: ORB08234.M
TO ALL RADIO AMATEURS BT

Satellite: HUBBLE
Catalog number: 20580
Epoch time:      08233.53397704
Element set:    0218
Inclination:      028.4694 deg
RA of node:       263.5273 deg
Eccentricity:    0.0003528
Arg of perigee:   348.4868 deg
Mean anomaly:     011.5639 deg
Mean motion:   15.00400612 rev/day
Decay rate:       2.89e-06 rev/day^2
Epoch rev:           80465
Checksum:              295

Satellite: PO-34
Catalog number: 25520
Epoch time:      08233.92323446
Element set:    0063
Inclination:      028.4582 deg
RA of node:       105.3703 deg
Eccentricity:    0.0005287
Arg of perigee:   268.0753 deg
Mean anomaly:     091.9237 deg
Mean motion:   15.17220102 rev/day
Decay rate:       3.64e-06 rev/day^2
Epoch rev:           54300
Checksum:              267

Satellite: ISS
Catalog number: 25544
Epoch time:      08233.82792824
Element set:    0095
Inclination:      051.6419 deg
RA of node:       044.5284 deg
Eccentricity:    0.0008365
Arg of perigee:   039.4067 deg
Mean anomaly:     163.5781 deg
Mean motion:   15.71055617 rev/day
Decay rate:      8.181e-05 rev/day^2
Epoch rev:           55870
Checksum:              316

Satellite: CO-58
Catalog number: 28895
Epoch time:      08234.72156548
Element set:     100
Inclination:      098.0890 deg
RA of node:       127.1559 deg
Eccentricity:    0.0017351
Arg of perigee:   201.2050 deg
Mean anomaly:     158.8446 deg
Mean motion:   14.59690711 rev/day
Decay rate:       1.05e-06 rev/day^2
Epoch rev:           15004
Checksum:              297

Satellite: NCUBE2
Catalog number: 28897
Epoch time:      08234.67840281
Element set:     631
Inclination:      098.0870 deg
RA of node:       127.0384 deg
Eccentricity:    0.0016560
Arg of perigee:   203.5592 deg
Mean anomaly:     156.4862 deg
Mean motion:   14.59862498 rev/day
Decay rate:        6.1e-07 rev/day^2
Epoch rev:           14232
Checksum:              317

Satellite: FALCON
Catalog number: 30776
Epoch time:      08233.94186552
Element set:    0380
Inclination:      035.4333 deg
RA of node:       120.7572 deg
Eccentricity:    0.0001354
Arg of perigee:   260.2693 deg
Mean anomaly:     099.7870 deg
Mean motion:   15.03036201 rev/day
Decay rate:       2.05e-06 rev/day^2
Epoch rev:           07989
Checksum:              286

Satellite: MAST
Catalog number: 31126
Epoch time:      08234.64259006
Element set:     401
Inclination:      098.0353 deg
RA of node:       296.4463 deg
Eccentricity:    0.0095946
Arg of perigee:   128.7680 deg
Mean anomaly:     232.2230 deg
Mean motion:   14.53441410 rev/day
Decay rate:       1.42e-06 rev/day^2
Epoch rev:            7152
Checksum:              266

Satellite: CAPE1
Catalog number: 31130
Epoch time:      08233.83206071
Element set:     384
Inclination:      098.0348 deg
RA of node:       294.5314 deg
Eccentricity:    0.0103826
Arg of perigee:   134.4490 deg
Mean anomaly:     226.5251 deg
Mean motion:   14.51986257 rev/day
Decay rate:        4.8e-07 rev/day^2
Epoch rev:            7110
Checksum:              274

Satellite: CUTE1-7
Catalog number: 32785
Epoch time:      08234.84153107
Element set:     136
Inclination:      097.9873 deg
RA of node:       294.5855 deg
Eccentricity:    0.0013823
Arg of perigee:   284.7182 deg
Mean anomaly:     075.2469 deg
Mean motion:   14.81384406 rev/day
Decay rate:       -6.9e-07 rev/day^2
Epoch rev:            1712
Checksum:              329

Satellite: COMPASS
Catalog number: 32787
Epoch time:      08234.83725784
Element set:     126
Inclination:      097.9844 deg
RA of node:       294.5259 deg
Eccentricity:    0.0014902
Arg of perigee:   286.3653 deg
Mean anomaly:     073.5920 deg
Mean motion:   14.81448835 rev/day
Decay rate:        6.0e-07 rev/day^2
Epoch rev:            1712
Checksum:              322

Satellite: AAUSAT2
Catalog number: 32788
Epoch time:      08234.69370455
Element set:     126
Inclination:      097.9835 deg
RA of node:       294.3997 deg
Eccentricity:    0.0014249
Arg of perigee:   290.7638 deg
Mean anomaly:     069.2050 deg
Mean motion:   14.81559969 rev/day
Decay rate:       3.16e-06 rev/day^2
Epoch rev:            1710
Checksum:              341

